Location: Limerick
(52.6800°N, 8.6400°W)
Time: 03:17:07
(UTC+00:00)

Amateur Radio Satellites - All Passes

Search period start: 01 November 2014 02:47
Search period end: 02 November 2014 02:47
Location: Limerick, 52.6800°N, 8.6400°W

Satellite Date Start Highest point End Downlink Frequencies (MHz)
Time Altitude Azimuth
AO-Echo 01 Nov 02:47:19 02:52:40 72° 103° (ESE) 02:57:58 ?
Uribyol 2 01 Nov 02:48:40 02:53:51 59° 102° (ESE) 02:58:57 436.500 FM
ITAMSAT 1 01 Nov 02:56:42 03:01:56 65° 103° (ESE) 03:07:06 435.822 SSB
PCSat 01 Nov 02:57:17 03:02:43 84° 127° (SE) 03:08:11 145.825 MHz
Oscar 19 01 Nov 03:07:25 03:12:23 51° 293° (WNW) 03:17:19 437.125 CW, 437.150 USB
AO-27 01 Nov 03:44:35 03:49:44 57° 292° (WNW) 03:54:50 436.795 MHz FM
Oscar 16 01 Nov 03:55:08 03:59:13 25° 303° (WNW) 04:03:18 437.025 USB, Beacon 2401.1428
Gurwin Techsat 1B 01 Nov 04:02:09 04:07:28 69° 290° (WNW) 04:12:45 435.225 FM
AO-7 01 Nov 04:03:52 04:11:13 33° 94° (E) 04:18:31 29.400 - 29.500 MHz
TMSAT-1 01 Nov 04:08:13 04:13:34 78° 288° (WNW) 04:18:52 436.925 FM
JAS-1B 01 Nov 04:17:28 04:23:14 32° 303° (WNW) 04:29:54 435.800 - 435.900 CW/SSB
Sapphire 01 Nov 04:19:44 04:24:48 39° 323° (NW) 04:29:54 437.095 MHz 1200 baud AX-25 AFSK
RS-15 01 Nov 04:20:34 04:31:37 69° 37° (NE) 04:43:05 29.354 - 29.394 USB, Beacon 29.352 USB
OPAL 01 Nov 04:21:03 04:26:06 66° 67° (ENE) 04:31:06 ?
JAS-2 01 Nov 04:24:33 04:29:51 19° 81° (E) 04:35:04 435.800 - 435.900 CW/SSB, 435.910 FM
AO-Echo 01 Nov 04:26:45 04:30:58 24° 303° (WNW) 04:35:10 ?
Uribyol 2 01 Nov 04:28:39 04:33:01 28° 302° (WNW) 04:37:22 436.500 FM
ITAMSAT 1 01 Nov 04:36:48 04:41:04 26° 303° (WNW) 04:45:18 435.822 SSB
Uosat F 01 Nov 04:39:19 04:44:01 37° 97° (E) 04:48:41 435.120 FM
STRAND 1 01 Nov 04:41:17 04:44:45 19° 53° (NE) 04:48:14 ?
PCSat 01 Nov 04:41:58 04:46:45 30° 329° (NNW) 04:51:33 145.825 MHz
Oscar 19 01 Nov 04:48:53 04:50:39 12° 314° (NW) 04:52:25 437.125 CW, 437.150 USB
MaSat-1 01 Nov 05:16:10 05:17:07 11° 35° (NE) 05:18:02 437.345 MHz
AO-27 01 Nov 05:25:50 05:28:14 13° 313° (NW) 05:30:37 436.795 MHz FM
Hamsat 01 Nov 05:33:02 05:36:15 21° 91° (E) 05:39:29 145.90 MHz
Gurwin Techsat 1B 01 Nov 05:43:29 05:46:34 16° 310° (NW) 05:49:39 435.225 FM
TMSAT-1 01 Nov 05:49:19 05:52:43 18° 309° (NW) 05:56:07 436.925 FM
AO-7 01 Nov 05:56:26 06:04:45 75° 296° (WNW) 06:13:03 29.400 - 29.500 MHz
OPAL 01 Nov 06:01:29 06:05:26 22° 266° (W) 06:09:22 ?
Sapphire 01 Nov 06:05:51 06:09:43 19° 348° (NNW) 06:13:36 437.095 MHz 1200 baud AX-25 AFSK
JAS-2 01 Nov 06:08:20 06:16:13 71° 102° (ESE) 06:23:56 435.800 - 435.900 CW/SSB, 435.910 FM
Saudisat 1A 01 Nov 06:09:05 06:13:24 58° 128° (SE) 06:17:45 436.775 MHz
STRAND 1 01 Nov 06:18:07 06:23:16 86° 73° (ENE) 06:28:29 ?
Uosat F 01 Nov 06:18:09 06:22:51 40° 297° (WNW) 06:27:32 435.120 FM
PCSat 01 Nov 06:28:11 06:31:53 18° 355° (N) 06:35:34 145.825 MHz
RS-15 01 Nov 06:33:15 06:43:47 52° 244° (WSW) 06:54:44 29.354 - 29.394 USB, Beacon 29.352 USB
MaSat-1 01 Nov 06:50:20 06:52:57 70° 238° (WSW) 06:55:21 437.345 MHz
Hamsat 01 Nov 07:08:24 07:12:30 52° 290° (WNW) 07:16:37 145.90 MHz
SO-67 01 Nov 07:35:31 07:38:55 51° 100° (E) 07:42:17 435.3500 MHz FM
Saudisat 1A 01 Nov 07:49:10 07:53:13 34° 329° (NNW) 07:57:17 436.775 MHz
HO-68 01 Nov 07:49:49 07:53:02 13° 80° (E) 07:56:14 435.675 MHz FM
AO-7 01 Nov 07:49:53 07:56:24 27° 319° (NW) 08:02:55 29.400 - 29.500 MHz
Sapphire 01 Nov 07:51:09 07:55:08 20° 15° (NNE) 07:59:08 437.095 MHz 1200 baud AX-25 AFSK
JAS-2 01 Nov 07:53:48 08:00:46 37° 303° (WNW) 08:07:43 435.800 - 435.900 CW/SSB, 435.910 FM
STRAND 1 01 Nov 07:59:51 08:03:10 17° 273° (W) 08:06:31 ?
PCSat 01 Nov 08:12:56 08:17:14 23° 21° (NNE) 08:21:31 145.825 MHz
RS-15 01 Nov 08:48:49 08:53:16 13° 268° (W) 08:57:48 29.354 - 29.394 USB, Beacon 29.352 USB
SO-67 01 Nov 09:09:20 09:11:34 16° 299° (WNW) 09:13:47 435.3500 MHz FM
UKube-1 01 Nov 09:18:21 09:21:10 17° 89° (E) 09:23:58 145.840 MHz, 145.915 MHz
KITSAT 1 01 Nov 09:27:09 09:32:39 21° 102° (ESE) 09:38:09 435.175 FM
Saudisat 1A 01 Nov 09:30:51 09:33:58 18° 353° (N) 09:37:05 436.775 MHz
Sapphire 01 Nov 09:34:44 09:39:57 44° 39° (NE) 09:45:08 437.095 MHz 1200 baud AX-25 AFSK
HO-68 01 Nov 09:35:13 09:42:21 59° 102° (ESE) 09:49:26 435.675 MHz FM
JAS-2 01 Nov 09:40:25 09:43:45 13° 326° (NW) 09:47:07 435.800 - 435.900 CW/SSB, 435.910 FM
AO-7 01 Nov 09:43:19 09:46:27 13° 345° (NNW) 09:49:35 29.400 - 29.500 MHz
Oscar 11 01 Nov 09:51:59 09:55:54 33° 96° (E) 09:59:47 145.825 FM, Beacon 2401.500 USB
PCSat 01 Nov 09:56:21 10:01:45 59° 45° (NE) 10:07:06 145.825 MHz
SO-50 01 Nov 10:10:20 10:12:59 15° 111° (ESE) 10:15:40 436.795 FM
FUNcube-1 01 Nov 10:10:47 10:14:11 23° 92° (E) 10:17:32 145.950 - 145.970 MHz USB
ISS 01 Nov 10:50:48 10:53:47 31° 153° (SSE) 10:56:47 145.800 FM
UKube-1 01 Nov 10:53:29 10:57:52 71° 288° (WNW) 11:02:12 145.840 MHz, 145.915 MHz
ZACube-1 01 Nov 11:03:53 11:08:08 73° 103° (ESE) 11:12:17 437.345 MHz
Saudisat 1A 01 Nov 11:11:32 11:14:59 21° 17° (NNE) 11:18:25 436.775 MHz
Oscar 19 01 Nov 11:14:31 11:17:31 16° 51° (NE) 11:20:32 437.125 CW, 437.150 USB
Sapphire 01 Nov 11:18:16 11:23:30 49° 241° (WSW) 11:28:42 437.095 MHz 1200 baud AX-25 AFSK
KITSAT 1 01 Nov 11:18:43 11:26:45 73° 125° (SE) 11:34:48 435.175 FM
HO-68 01 Nov 11:23:17 11:29:52 40° 304° (NW) 11:36:26 435.675 MHz FM
Oscar 11 01 Nov 11:28:11 11:32:06 34° 295° (WNW) 11:36:00 145.825 FM, Beacon 2401.500 USB
JAS-1B 01 Nov 11:30:33 11:34:52 23° 51° (NE) 11:39:21 435.800 - 435.900 CW/SSB
AO-7 01 Nov 11:32:48 11:35:46 12° 13° (NNE) 11:38:44 29.400 - 29.500 MHz
PCSat 01 Nov 11:40:08 11:44:57 33° 246° (WSW) 11:49:44 145.825 MHz
FUNcube-1 01 Nov 11:46:46 11:50:49 45° 292° (WNW) 11:54:47 145.950 - 145.970 MHz USB
SO-50 01 Nov 11:48:15 11:52:48 82° 132° (SE) 11:57:32 436.795 FM
AO-27 01 Nov 11:52:44 11:55:49 16° 50° (NE) 11:58:54 436.795 MHz FM
Oscar 16 01 Nov 11:59:44 12:04:14 32° 61° (ENE) 12:08:45 437.025 USB, Beacon 2401.1428
Oscar 10/S400 01 Nov 12:07:55 12:18:45 17° 145° (SE) 12:30:16 145.825 - 145.975 CW/USB, Beacon 145.810 USB
Gurwin Techsat 1B 01 Nov 12:13:12 12:15:49 14° 48° (NE) 12:18:26 435.225 FM
TMSAT-1 01 Nov 12:19:42 12:21:47 12° 46° (NE) 12:23:52 436.925 FM
ISS 01 Nov 12:26:53 12:30:13 71° 172° (S) 12:33:33 145.800 FM
AO-Echo 01 Nov 12:28:21 12:32:45 30° 60° (ENE) 12:37:17 ?
UOSAT-12 01 Nov 12:28:23 12:32:26 30° 119° (ESE) 12:36:32 437.025 FM, 437.400 FM
UKube-1 01 Nov 12:31:20 12:33:18 13° 308° (NW) 12:35:15 145.840 MHz, 145.915 MHz
Uribyol 2 01 Nov 12:34:10 12:38:40 30° 59° (ENE) 12:43:10 436.500 FM
ZACube-1 01 Nov 12:41:18 12:44:03 17° 303° (WNW) 12:46:46 437.345 MHz
ITAMSAT 1 01 Nov 12:42:12 12:46:48 33° 60° (ENE) 12:51:26 435.822 SSB
Oscar 19 01 Nov 12:50:57 12:56:04 73° 71° (ENE) 13:01:12 437.125 CW, 437.150 USB
Saudisat 1A 01 Nov 12:51:03 12:55:25 55° 40° (NE) 12:59:47 436.775 MHz
HO-68 01 Nov 13:12:26 13:15:46 14° 327° (NNW) 13:19:06 435.675 MHz FM
KITSAT 1 01 Nov 13:14:58 13:22:43 47° 330° (NNW) 13:30:29 435.175 FM
JAS-1B 01 Nov 13:19:15 13:24:56 79° 255° (WSW) 13:30:52 435.800 - 435.900 CW/SSB
AO-7 01 Nov 13:19:24 13:25:46 26° 40° (NE) 13:32:08 29.400 - 29.500 MHz
AO-27 01 Nov 13:29:17 13:34:29 71° 70° (ENE) 13:39:44 436.795 MHz FM
SO-50 01 Nov 13:29:46 13:33:52 30° 334° (NNW) 13:38:05 436.795 FM
Oscar 16 01 Nov 13:38:27 13:43:26 49° 261° (W) 13:48:27 437.025 USB, Beacon 2401.1428
Gurwin Techsat 1B 01 Nov 13:49:35 13:54:48 60° 68° (ENE) 14:00:02 435.225 FM
TMSAT-1 01 Nov 13:55:28 14:00:36 52° 67° (ENE) 14:05:45 436.925 FM
ISS 01 Nov 14:03:31 14:06:49 62° 192° (SSW) 14:10:08 145.800 FM
AO-Echo 01 Nov 14:06:22 14:11:18 52° 261° (W) 14:16:25 ?
UOSAT-12 01 Nov 14:07:42 14:12:21 60° 320° (NW) 14:17:04 437.025 FM, 437.400 FM
Uribyol 2 01 Nov 14:12:48 14:17:55 54° 259° (W) 14:23:04 436.500 FM
ITAMSAT 1 01 Nov 14:21:05 14:26:08 49° 260° (W) 14:31:15 435.822 SSB
Uosat F 01 Nov 14:21:44 14:25:15 19° 53° (NE) 14:28:45 435.120 FM
Saudisat 1A 01 Nov 14:30:56 14:34:48 30° 240° (WSW) 14:38:39 436.775 MHz
Oscar 19 01 Nov 14:32:13 14:35:58 20° 271° (W) 14:39:44 437.125 CW, 437.150 USB
JAS-2 01 Nov 14:44:31 14:49:03 19° 42° (NE) 14:53:52 435.800 - 435.900 CW/SSB, 435.910 FM
AO-7 01 Nov 15:09:08 15:17:20 72° 63° (ENE) 15:25:36 29.400 - 29.500 MHz
AO-27 01 Nov 15:10:35 15:14:32 22° 270° (W) 15:18:32 436.795 MHz FM
SO-50 01 Nov 15:12:21 15:15:48 20° 359° (N) 15:19:18 436.795 FM
KITSAT 1 01 Nov 15:13:05 15:20:10 32° 358° (N) 15:27:15 435.175 FM
JAS-1B 01 Nov 15:14:09 15:16:54 14° 278° (W) 15:19:42 435.800 - 435.900 CW/SSB
Gurwin Techsat 1B 01 Nov 15:30:45 15:35:09 26° 268° (W) 15:39:35 435.225 FM
TMSAT-1 01 Nov 15:36:10 15:40:47 30° 267° (W) 15:45:27 436.925 FM
ISS 01 Nov 15:40:25 15:43:08 23° 212° (SSW) 15:45:51 145.800 FM
UOSAT-12 01 Nov 15:49:32 15:53:23 24° 343° (NNW) 15:57:14 437.025 FM, 437.400 FM
Uosat F 01 Nov 15:58:22 16:03:25 88° 253° (WSW) 16:08:31 435.120 FM
JAS-2 01 Nov 16:26:07 16:32:36 59° 65° (ENE) 16:39:53 435.800 - 435.900 CW/SSB, 435.910 FM
Hamsat 01 Nov 16:31:53 16:35:35 31° 65° (ENE) 16:39:17 145.90 MHz
SO-50 01 Nov 16:53:41 16:57:47 27° 23° (NNE) 17:01:57 436.795 FM
AO-7 01 Nov 17:03:27 17:10:48 35° 266° (W) 17:18:14 29.400 - 29.500 MHz
KITSAT 1 01 Nov 17:10:06 17:17:44 43° 27° (NNE) 17:25:21 435.175 FM
UOSAT-12 01 Nov 17:31:29 17:35:01 20° 7° (N) 17:38:32 437.025 FM, 437.400 FM
Uosat F 01 Nov 17:40:02 17:42:58 15° 273° (W) 17:45:56 435.120 FM
OPAL 01 Nov 18:03:42 18:08:37 58° 104° (ESE) 18:13:29 ?
Hamsat 01 Nov 18:07:42 18:11:31 34° 264° (W) 18:15:21 145.90 MHz
JAS-2 01 Nov 18:12:01 18:18:03 37° 269° (W) 18:24:46 435.800 - 435.900 CW/SSB, 435.910 FM
SO-67 01 Nov 18:13:30 18:16:46 43° 70° (ENE) 18:20:05 435.3500 MHz FM
STRAND 1 01 Nov 18:23:32 18:27:12 19° 89° (E) 18:30:49 ?
HO-68 01 Nov 18:24:33 18:30:00 24° 46° (NE) 18:35:29 435.675 MHz FM
SO-50 01 Nov 18:34:11 18:39:01 80° 45° (NE) 18:43:55 436.795 FM
RS-15 01 Nov 18:58:02 19:03:47 16° 94° (E) 19:09:30 29.354 - 29.394 USB, Beacon 29.352 USB
KITSAT 1 01 Nov 19:05:50 19:13:58 84° 232° (SW) 19:22:03 435.175 FM
UOSAT-12 01 Nov 19:11:59 19:16:24 36° 31° (NNE) 19:20:46 437.025 FM, 437.400 FM
OPAL 01 Nov 19:43:05 19:47:14 27° 304° (NW) 19:51:21 ?
SO-67 01 Nov 19:47:37 19:49:58 17° 269° (W) 19:52:20 435.3500 MHz FM
STRAND 1 01 Nov 20:01:49 20:07:00 78° 288° (WNW) 20:12:08 ?
HO-68 01 Nov 20:09:36 20:16:46 79° 68° (ENE) 20:23:59 435.675 MHz FM
SO-50 01 Nov 20:15:26 20:19:08 22° 245° (WSW) 20:22:51 436.795 FM
AO-40 01 Nov 20:18:37 21:24:44 13° 116° (ESE) 22:10:30 Beacon 2401.320
UKube-1 01 Nov 20:19:00 20:22:50 31° 63° (ENE) 20:26:42 145.840 MHz, 145.915 MHz
ZACube-1 01 Nov 20:31:03 20:34:15 20° 59° (ENE) 20:37:25 437.345 MHz
UOSAT-12 01 Nov 20:52:09 20:56:51 61° 232° (SW) 21:01:27 437.025 FM, 437.400 FM
Oscar 11 01 Nov 20:52:29 20:56:42 54° 70° (ENE) 21:00:55 145.825 FM, Beacon 2401.500 USB
KITSAT 1 01 Nov 21:02:08 21:08:20 25° 255° (WSW) 21:14:32 435.175 FM
RS-15 01 Nov 21:02:55 21:13:30 59° 119° (ESE) 21:24:07 29.354 - 29.394 USB, Beacon 29.352 USB
FUNcube-1 01 Nov 21:12:21 21:16:33 41° 67° (ENE) 21:20:41 145.950 - 145.970 MHz USB
STRAND 1 01 Nov 21:42:13 21:45:26 17° 309° (NW) 21:48:38 ?
UKube-1 01 Nov 21:54:53 21:58:57 38° 262° (W) 22:03:04 145.840 MHz, 145.915 MHz
HO-68 01 Nov 21:59:18 22:05:14 27° 269° (W) 22:11:13 435.675 MHz FM
MaSat-1 01 Nov 22:04:58 22:08:35 54° 120° (ESE) 22:11:49 437.345 MHz
ZACube-1 01 Nov 22:05:46 22:10:15 68° 258° (WSW) 22:14:39 437.345 MHz
Oscar 11 01 Nov 22:29:55 22:33:12 21° 269° (W) 22:36:30 145.825 FM, Beacon 2401.500 USB
UOSAT-12 01 Nov 22:34:41 22:36:03 11° 252° (WSW) 22:37:25 437.025 FM, 437.400 FM
FUNcube-1 01 Nov 22:49:09 22:53:03 29° 266° (W) 22:56:54 145.950 - 145.970 MHz USB
RS-15 01 Nov 23:15:06 23:25:56 63° 327° (NNW) 23:36:57 29.354 - 29.394 USB, Beacon 29.352 USB
MaSat-1 01 Nov 23:41:27 23:44:07 20° 317° (NW) 23:46:35 437.345 MHz
PCSat 02 Nov 00:47:13 00:49:43 13° 103° (ESE) 00:52:13 145.825 MHz
JAS-1B 02 Nov 00:55:09 01:00:42 24° 90° (E) 01:06:57 435.800 - 435.900 CW/SSB
Oscar 19 02 Nov 00:57:33 01:00:47 17° 87° (E) 01:04:00 437.125 CW, 437.150 USB
RS-15 02 Nov 01:30:13 01:40:35 45° 359° (N) 01:51:13 29.354 - 29.394 USB, Beacon 29.352 USB
Oscar 10/S400 02 Nov 01:32:31 01:40:35 10° 244° (WSW) 01:49:27 145.825 - 145.975 CW/USB, Beacon 145.810 USB
AO-27 02 Nov 01:37:26 01:40:40 16° 87° (E) 01:43:53 436.795 MHz FM
Oscar 16 02 Nov 01:43:55 01:48:42 38° 97° (E) 01:53:28 437.025 USB, Beacon 2401.1428
Gurwin Techsat 1B 02 Nov 02:00:57 02:03:59 15° 85° (E) 02:07:00 435.225 FM
Sapphire 02 Nov 02:05:35 02:10:42 45° 118° (ESE) 02:15:53 437.095 MHz 1200 baud AX-25 AFSK
TMSAT-1 02 Nov 02:06:53 02:09:15 13° 83° (E) 02:11:35 436.925 FM
AO-Echo 02 Nov 02:07:25 02:12:20 36° 95° (E) 02:17:11 ?
Uribyol 2 02 Nov 02:19:29 02:24:15 35° 96° (E) 02:28:59 436.500 FM
PCSat 02 Nov 02:26:46 02:32:08 67° 123° (ESE) 02:37:33 145.825 MHz
ITAMSAT 1 02 Nov 02:27:46 02:32:40 39° 97° (E) 02:37:30 435.822 SSB
Oscar 19 02 Nov 02:35:42 02:40:51 87° 286° (WNW) 02:45:59 437.125 CW, 437.150 USB
